GEFSSGP_prec_meanprecacc_156.txt.gz
Total_Precipitation_Accumulation
0.01 0.04 0.16 0.29 0.48 0.77 0.90 0.61 0.53 0.38 0.31 0.34 0.28 0.25 0.30 0.44 0.52 0.59 0.27 0.09 0.02 0.02 0.03 0.06 0.07 0.06 0.05 0.06 0.09 0.11 0.11 0.11 0.13 0.15 0.17 0.18 0.19 0.17 0.14 0.12 0.11 0.11 0.09 0.08 0.08 0.09 0.10 0.10 0.10
0.01 0.04 0.17 0.28 0.58 1.05 0.90 0.46 0.32 0.27 0.27 0.31 0.30 0.30 0.44 0.47 0.36 0.33 0.18 0.07 0.03 0.02 0.02 0.03 0.06 0.06 0.05 0.06 0.08 0.11 0.12 0.11 0.12 0.17 0.18 0.17 0.19 0.18 0.17 0.16 0.15 0.15 0.10 0.08 0.07 0.07 0.08 0.07 0.06
0.01 0.04 0.15 0.29 0.57 0.82 0.65 0.38 0.25 0.20 0.27 0.41 0.43 0.35 0.52 0.51 0.38 0.34 0.18 0.05 0.03 0.04 0.06 0.05 0.06 0.06 0.05 0.06 0.08 0.11 0.13 0.12 0.13 0.17 0.17 0.16 0.18 0.20 0.19 0.21 0.21 0.19 0.14 0.10 0.08 0.07 0.06 0.06 0.05
0.01 0.06 0.13 0.24 0.37 0.40 0.34 0.25 0.21 0.21 0.26 0.40 0.48 0.44 0.51 0.38 0.24 0.23 0.15 0.06 0.04 0.05 0.09 0.08 0.06 0.06 0.05 0.05 0.06 0.08 0.11 0.13 0.14 0.17 0.18 0.19 0.22 0.23 0.18 0.21 0.21 0.19 0.14 0.12 0.11 0.10 0.07 0.06 0.05
0.02 0.06 0.12 0.22 0.30 0.30 0.26 0.21 0.22 0.31 0.35 0.42 0.45 0.60 0.59 0.42 0.28 0.20 0.14 0.08 0.04 0.05 0.06 0.07 0.08 0.07 0.08 0.07 0.07 0.08 0.10 0.12 0.13 0.16 0.21 0.22 0.23 0.24 0.23 0.21 0.19 0.16 0.12 0.11 0.16 0.18 0.15 0.11 0.10
0.02 0.04 0.07 0.14 0.20 0.23 0.21 0.18 0.17 0.26 0.38 0.44 0.44 0.53 0.62 0.50 0.38 0.27 0.16 0.10 0.06 0.06 0.08 0.11 0.11 0.11 0.10 0.09 0.09 0.10 0.12 0.13 0.13 0.14 0.17 0.18 0.17 0.19 0.21 0.21 0.20 0.17 0.16 0.17 0.18 0.18 0.19 0.20 0.18
0.01 0.03 0.03 0.06 0.09 0.11 0.15 0.16 0.16 0.21 0.33 0.38 0.39 0.60 0.76 0.66 0.47 0.36 0.28 0.24 0.16 0.12 0.13 0.16 0.18 0.19 0.17 0.17 0.17 0.17 0.16 0.16 0.16 0.17 0.18 0.19 0.20 0.21 0.22 0.22 0.21 0.20 0.22 0.22 0.20 0.16 0.16 0.20 0.20
0.01 0.02 0.01 0.02 0.03 0.05 0.07 0.10 0.15 0.22 0.24 0.32 0.37 0.57 0.82 0.68 0.49 0.52 0.62 0.55 0.39 0.28 0.26 0.27 0.32 0.38 0.31 0.26 0.25 0.23 0.23 0.22 0.23 0.24 0.25 0.26 0.29 0.30 0.33 0.32 0.31 0.30 0.31 0.29 0.26 0.22 0.22 0.25 0.24
0.01 0.01 0.01 0.01 0.01 0.03 0.04 0.09 0.13 0.13 0.18 0.25 0.34 0.45 0.61 0.51 0.52 0.74 1.01 0.82 0.65 0.49 0.38 0.32 0.31 0.41 0.45 0.39 0.33 0.33 0.34 0.34 0.36 0.44 0.44 0.45 0.51 0.57 0.61 0.53 0.58 0.59 0.61 0.59 0.55 0.49 0.45 0.40 0.34
0.00 0.00 0.00 0.00 0.00 0.01 0.03 0.07 0.11 0.15 0.28 0.48 0.59 0.61 0.55 0.63 0.78 1.05 1.18 1.02 0.84 0.69 0.55 0.44 0.40 0.39 0.43 0.45 0.57 0.61 0.61 0.64 0.62 0.76 0.79 0.81 0.89 0.84 0.68 0.76 0.98 1.17 1.24 1.18 1.16 1.11 0.91 0.76 0.71
0.00 0.00 0.00 0.00 0.00 0.01 0.02 0.05 0.11 0.20 0.43 0.75 0.86 0.87 0.80 0.97 1.24 1.45 1.52 1.45 1.26 1.12 0.83 0.64 0.58 0.59 0.58 0.65 0.67 0.76 0.88 1.03 0.96 0.95 1.10 1.22 1.17 0.96 0.85 0.96 1.15 1.33 1.45 1.56 1.87 1.88 1.48 1.46 1.45
0.00 0.00 0.00 0.00 0.00 0.01 0.02 0.05 0.15 0.33 0.64 0.74 0.84 0.94 0.96 1.16 1.36 1.53 1.95 1.98 1.55 1.24 1.11 1.01 0.91 0.88 0.90 0.85 0.92 0.95 0.97 1.03 1.04 1.18 1.28 1.39 1.40 1.30 1.24 1.34 1.40 1.59 1.68 2.01 2.08 2.18 2.02 1.82 1.61
0.00 0.00 0.00 0.00 0.00 0.01 0.03 0.07 0.15 0.32 0.48 0.56 0.69 0.76 0.84 1.20 1.46 1.75 2.27 2.16 1.87 1.65 1.39 1.29 1.29 1.34 1.26 1.20 1.23 1.15 1.14 1.15 1.22 1.35 1.48 1.57 1.61 1.55 1.56 1.64 1.71 1.55 1.69 1.98 2.19 2.14 2.31 2.30 2.08
0.00 0.00 0.00 0.01 0.01 0.02 0.03 0.10 0.19 0.38 0.49 0.64 0.67 0.84 1.06 1.40 1.62 1.97 2.24 2.43 2.18 1.94 1.71 1.56 1.49 1.55 1.57 1.53 1.58 1.55 1.36 1.37 1.37 1.56 1.62 1.72 1.75 1.78 1.86 1.90 1.85 1.65 1.65 1.91 2.17 2.10 2.39 2.30 2.25
0.01 0.01 0.04 0.03 0.03 0.04 0.06 0.20 0.39 0.48 0.63 0.76 0.86 1.00 1.20 1.46 1.92 2.12 2.29 2.64 2.51 2.30 2.14 1.90 1.79 1.94 2.10 2.13 2.09 1.96 1.76 1.60 1.61 1.70 1.73 1.81 1.81 1.93 1.94 1.88 1.83 1.81 1.79 1.99 2.08 2.14 2.31 2.13 2.01
0.01 0.03 0.09 0.10 0.07 0.07 0.12 0.47 0.55 0.46 0.72 0.89 0.93 1.11 1.48 1.77 2.14 2.59 2.64 2.52 2.45 2.45 2.45 2.12 2.00 2.36 2.65 2.60 2.51 2.36 2.11 1.89 1.74 1.80 1.77 1.84 1.87 1.99 2.10 1.88 1.80 2.04 2.05 2.16 2.36 2.34 2.45 2.48 2.34
0.01 0.05 0.10 0.14 0.09 0.09 0.22 0.65 0.56 0.41 0.58 0.77 1.00 1.17 1.63 2.08 2.37 2.45 2.46 2.60 2.68 2.65 2.59 2.47 2.50 2.63 2.77 2.78 2.80 2.59 2.34 2.11 1.88 1.77 1.70 1.75 1.89 2.11 2.39 2.16 2.14 2.24 2.25 2.27 2.02 2.46 2.73 2.66 2.49
0.01 0.04 0.09 0.13 0.11 0.15 0.25 0.49 0.52 0.47 0.61 0.82 1.14 1.31 1.47 1.82 2.24 2.30 2.35 2.72 2.77 2.84 2.87 2.70 2.75 2.89 3.16 3.36 3.36 2.98 2.58 2.26 2.04 1.91 1.87 1.94 2.16 2.33 2.56 2.32 2.26 2.30 2.36 2.29 2.35 2.65 2.66 2.42 2.41
0.01 0.04 0.10 0.13 0.12 0.18 0.29 0.48 0.63 0.62 0.77 1.16 1.38 1.34 1.32 1.57 2.04 2.39 2.60 2.73 2.98 3.07 3.18 3.09 3.19 3.55 3.84 3.68 3.33 3.09 2.77 2.51 2.29 2.12 2.02 2.03 2.05 2.22 2.47 2.28 2.43 2.36 2.22 2.18 2.32 2.54 2.55 2.29 2.52
0.02 0.06 0.13 0.15 0.13 0.21 0.36 0.58 0.74 0.82 1.07 1.23 1.15 1.15 1.32 1.60 2.04 2.37 2.59 2.69 2.89 3.12 3.52 3.56 3.60 3.89 4.07 3.86 3.61 3.38 3.14 2.78 2.64 2.49 2.31 2.06 1.97 2.07 2.16 2.34 2.19 2.18 2.16 2.16 2.31 2.47 2.27 2.00 2.46
0.04 0.06 0.12 0.12 0.19 0.31 0.39 0.78 0.94 1.05 1.19 1.18 1.14 1.29 1.36 1.43 1.80 2.00 2.04 2.23 2.37 2.45 2.68 2.92 3.28 3.63 3.70 3.74 3.61 3.49 3.36 2.88 2.70 2.54 2.35 2.12 1.98 1.94 2.04 2.14 2.14 2.06 2.03 2.03 2.21 2.27 2.20 2.06 2.22
0.06 0.05 0.05 0.08 0.16 0.41 0.49 0.99 1.19 1.38 1.44 1.26 1.21 1.20 1.21 1.42 1.72 1.70 1.57 1.72 1.88 1.81 2.04 2.38 2.73 3.00 3.13 3.24 3.24 3.25 3.12 2.86 2.77 2.60 2.24 2.00 1.86 1.85 1.90 1.93 1.92 1.91 1.86 1.84 1.80 1.91 2.22 2.26 2.07
0.04 0.04 0.06 0.09 0.16 0.37 0.43 0.77 1.22 1.54 1.63 1.28 1.17 1.12 1.18 1.37 1.41 1.40 1.44 1.53 1.61 1.69 1.93 2.18 2.38 2.61 2.75 2.81 2.80 2.79 2.67 2.53 2.45 2.30 2.03 1.85 1.72 1.66 1.57 1.60 1.76 1.80 1.72 1.66 1.67 1.79 1.95 1.98 1.95
0.04 0.07 0.12 0.17 0.33 0.67 0.58 0.68 1.17 1.47 1.29 1.11 1.07 0.92 1.00 1.21 1.29 1.36 1.43 1.45 1.54 1.78 2.04 2.26 2.42 2.56 2.59 2.40 2.24 2.23 2.22 2.19 2.10 1.94 1.76 1.59 1.49 1.42 1.34 1.41 1.54 1.58 1.57 1.57 1.53 1.59 1.69 1.76 1.81
0.08 0.16 0.53 0.87 1.18 1.08 0.68 0.78 1.36 1.22 0.86 0.77 0.85 0.84 0.85 0.93 1.09 1.19 1.34 1.50 1.60 1.66 1.65 1.91 2.21 2.38 2.33 2.12 1.93 1.86 1.86 1.86 1.82 1.70 1.60 1.51 1.37 1.28 1.25 1.26 1.28 1.32 1.36 1.41 1.45 1.47 1.53 1.67 1.73
0.13 0.24 0.65 0.87 0.92 0.90 0.72 1.12 1.51 1.12 0.76 0.61 0.68 0.70 0.62 0.59 0.56 0.65 0.78 0.83 0.90 0.91 0.89 0.98 1.14 1.30 1.35 1.29 1.28 1.29 1.32 1.36 1.40 1.47 1.40 1.37 1.32 1.20 1.14 1.08 1.07 1.12 1.15 1.18 1.32 1.41 1.51 1.62 1.68
0.24 0.28 0.28 0.46 0.62 0.91 0.90 1.10 1.09 0.83 0.67 0.60 0.66 0.65 0.53 0.48 0.43 0.47 0.53 0.50 0.57 0.58 0.61 0.72 0.81 0.89 0.91 0.88 0.86 0.86 0.93 1.01 1.07 1.10 1.11 1.13 1.14 1.08 1.06 1.06 1.08 1.05 1.07 1.13 1.22 1.31 1.36 1.49 1.58
0.20 0.27 0.42 0.64 0.83 0.89 0.94 1.22 1.31 1.14 0.94 0.75 0.72 0.67 0.51 0.41 0.36 0.37 0.44 0.44 0.52 0.62 0.73 0.82 0.81 0.78 0.71 0.69 0.69 0.64 0.71 0.77 0.81 0.81 0.81 0.82 0.83 0.87 0.88 0.89 0.91 0.93 0.94 0.96 1.06 1.16 1.24 1.35 1.41
0.22 0.29 0.44 0.60 0.65 0.78 1.02 1.10 0.82 0.77 0.83 0.89 0.92 0.78 0.53 0.39 0.34 0.35 0.40 0.43 0.48 0.57 0.66 0.72 0.75 0.75 0.69 0.64 0.65 0.63 0.63 0.61 0.64 0.68 0.66 0.68 0.69 0.71 0.72 0.75 0.78 0.81 0.86 0.91 0.96 1.00 1.09 1.14 1.18
0.21 0.30 0.46 0.68 0.73 0.73 0.80 0.85 0.47 0.47 0.56 0.64 0.65 0.55 0.38 0.30 0.28 0.29 0.30 0.31 0.38 0.46 0.53 0.56 0.58 0.66 0.65 0.59 0.60 0.61 0.58 0.53 0.54 0.55 0.54 0.56 0.59 0.62 0.63 0.66 0.68 0.72 0.78 0.86 0.96 1.02 1.07 1.09 1.10

GEFSSGP_prec_meanprecacc_162.txt.gz
Total_Precipitation_Accumulation
0.01 0.04 0.16 0.29 0.50 0.82 0.93 0.61 0.53 0.38 0.31 0.34 0.28 0.25 0.32 0.48 0.57 0.74 0.30 0.09 0.02 0.02 0.03 0.06 0.07 0.06 0.06 0.07 0.09 0.12 0.12 0.12 0.13 0.15 0.17 0.19 0.22 0.19 0.16 0.14 0.14 0.14 0.12 0.12 0.11 0.11 0.11 0.11 0.11
0.01 0.05 0.17 0.28 0.61 1.08 0.93 0.47 0.33 0.28 0.27 0.31 0.30 0.30 0.45 0.48 0.36 0.34 0.18 0.07 0.03 0.02 0.02 0.03 0.06 0.06 0.05 0.07 0.09 0.12 0.14 0.12 0.13 0.17 0.19 0.18 0.21 0.20 0.19 0.18 0.18 0.17 0.12 0.10 0.08 0.08 0.09 0.09 0.07
0.01 0.05 0.16 0.29 0.58 0.83 0.67 0.39 0.25 0.20 0.27 0.41 0.43 0.36 0.54 0.51 0.38 0.34 0.18 0.05 0.03 0.04 0.06 0.05 0.06 0.06 0.06 0.07 0.09 0.12 0.15 0.13 0.14 0.18 0.18 0.18 0.20 0.21 0.21 0.23 0.24 0.22 0.16 0.12 0.10 0.08 0.07 0.07 0.06
0.01 0.06 0.13 0.24 0.37 0.40 0.34 0.25 0.21 0.21 0.26 0.40 0.48 0.45 0.52 0.38 0.24 0.23 0.15 0.06 0.04 0.05 0.09 0.08 0.06 0.06 0.06 0.06 0.07 0.09 0.13 0.15 0.16 0.18 0.19 0.21 0.24 0.24 0.19 0.22 0.22 0.21 0.17 0.13 0.13 0.12 0.08 0.07 0.06
0.02 0.06 0.14 0.23 0.30 0.30 0.26 0.21 0.22 0.31 0.35 0.42 0.45 0.63 0.63 0.42 0.28 0.20 0.14 0.08 0.04 0.05 0.06 0.07 0.08 0.08 0.08 0.08 0.07 0.08 0.12 0.14 0.15 0.18 0.22 0.23 0.25 0.26 0.26 0.23 0.20 0.17 0.14 0.13 0.18 0.20 0.16 0.11 0.11
0.02 0.04 0.08 0.15 0.22 0.23 0.22 0.18 0.17 0.26 0.39 0.45 0.45 0.56 0.68 0.50 0.38 0.27 0.16 0.10 0.06 0.06 0.08 0.11 0.12 0.11 0.10 0.09 0.10 0.11 0.13 0.15 0.15 0.16 0.18 0.19 0.18 0.21 0.24 0.23 0.22 0.18 0.18 0.19 0.19 0.19 0.19 0.21 0.19
0.01 0.03 0.03 0.07 0.11 0.12 0.15 0.16 0.16 0.22 0.35 0.41 0.40 0.63 0.79 0.66 0.47 0.36 0.28 0.25 0.17 0.13 0.13 0.16 0.19 0.20 0.18 0.18 0.19 0.18 0.18 0.18 0.17 0.18 0.19 0.20 0.21 0.23 0.24 0.23 0.22 0.21 0.23 0.22 0.20 0.17 0.17 0.21 0.21
0.01 0.02 0.02 0.02 0.04 0.07 0.07 0.10 0.15 0.22 0.26 0.35 0.38 0.59 0.84 0.69 0.49 0.52 0.62 0.56 0.43 0.32 0.27 0.27 0.33 0.40 0.33 0.27 0.26 0.24 0.24 0.23 0.24 0.25 0.26 0.28 0.30 0.32 0.34 0.33 0.32 0.31 0.32 0.30 0.27 0.23 0.23 0.25 0.25
0.01 0.01 0.01 0.01 0.02 0.06 0.06 0.09 0.13 0.13 0.18 0.26 0.35 0.46 0.62 0.51 0.52 0.76 1.03 0.86 0.71 0.57 0.43 0.36 0.35 0.44 0.49 0.42 0.35 0.35 0.36 0.36 0.37 0.45 0.46 0.49 0.57 0.61 0.64 0.55 0.60 0.60 0.62 0.60 0.56 0.49 0.45 0.40 0.34
0.00 0.00 0.01 0.01 0.01 0.02 0.04 0.07 0.12 0.15 0.28 0.49 0.60 0.61 0.55 0.63 0.79 1.07 1.20 1.05 0.88 0.82 0.62 0.50 0.47 0.44 0.49 0.49 0.60 0.67 0.66 0.68 0.68 0.81 0.84 0.93 1.02 0.96 0.74 0.79 1.00 1.18 1.25 1.18 1.17 1.12 0.92 0.77 0.73
0.00 0.00 0.00 0.00 0.00 0.01 0.02 0.06 0.11 0.20 0.44 0.80 0.91 0.89 0.81 0.98 1.25 1.47 1.55 1.49 1.30 1.20 0.89 0.69 0.63 0.65 0.63 0.73 0.73 0.82 0.97 1.11 1.05 1.03 1.16 1.31 1.24 1.02 0.90 1.01 1.19 1.37 1.48 1.60 1.89 1.89 1.50 1.50 1.52
0.00 0.00 0.00 0.00 0.00 0.01 0.02 0.05 0.15 0.33 0.65 0.80 0.94 1.01 0.98 1.17 1.38 1.55 1.99 2.04 1.62 1.34 1.20 1.06 0.95 0.93 0.97 0.91 0.99 1.00 1.03 1.10 1.11 1.24 1.34 1.45 1.49 1.38 1.32 1.43 1.49 1.66 1.76 2.10 2.14 2.22 2.06 1.86 1.65
0.00 0.00 0.00 0.00 0.00 0.01 0.03 0.07 0.15 0.33 0.49 0.56 0.74 0.83 0.86 1.21 1.48 1.79 2.34 2.23 1.94 1.75 1.54 1.36 1.36 1.41 1.34 1.28 1.31 1.20 1.20 1.20 1.27 1.40 1.55 1.63 1.69 1.63 1.64 1.72 1.77 1.61 1.75 2.04 2.25 2.18 2.34 2.32 2.10
0.00 0.00 0.00 0.01 0.01 0.02 0.03 0.10 0.20 0.38 0.49 0.65 0.68 0.85 1.06 1.41 1.64 2.00 2.31 2.52 2.29 2.03 1.81 1.66 1.58 1.64 1.68 1.62 1.67 1.63 1.41 1.44 1.44 1.62 1.66 1.77 1.82 1.87 1.96 1.97 1.91 1.70 1.71 1.97 2.22 2.15 2.43 2.34 2.29
0.01 0.01 0.04 0.03 0.03 0.04 0.06 0.20 0.40 0.50 0.64 0.76 0.87 1.00 1.20 1.47 1.94 2.16 2.33 2.70 2.63 2.43 2.26 2.02 1.89 2.05 2.21 2.23 2.16 2.02 1.82 1.65 1.67 1.76 1.78 1.85 1.86 2.01 2.01 1.94 1.89 1.86 1.84 2.03 2.13 2.20 2.36 2.18 2.05
0.01 0.03 0.09 0.10 0.07 0.07 0.12 0.48 0.57 0.47 0.73 0.90 0.95 1.12 1.48 1.79 2.17 2.64 2.70 2.59 2.57 2.63 2.60 2.25 2.10 2.47 2.76 2.72 2.61 2.44 2.17 1.94 1.81 1.86 1.82 1.88 1.92 2.03 2.15 1.93 1.85 2.09 2.09 2.20 2.41 2.40 2.51 2.54 2.39
0.01 0.05 0.10 0.14 0.09 0.09 0.22 0.65 0.57 0.42 0.58 0.77 1.00 1.18 1.63 2.11 2.42 2.53 2.53 2.67 2.78 2.82 2.78 2.62 2.64 2.74 2.88 2.91 2.93 2.69 2.42 2.18 1.96 1.84 1.77 1.80 1.92 2.12 2.43 2.21 2.20 2.27 2.28 2.30 2.05 2.51 2.78 2.72 2.55
0.01 0.04 0.09 0.13 0.11 0.15 0.25 0.49 0.52 0.47 0.61 0.82 1.14 1.31 1.48 1.85 2.28 2.35 2.40 2.78 2.86 2.99 3.05 2.88 2.89 3.02 3.27 3.46 3.49 3.09 2.67 2.34 2.12 1.98 1.94 2.00 2.20 2.37 2.60 2.36 2.30 2.32 2.39 2.33 2.39 2.72 2.70 2.46 2.46
0.01 0.04 0.11 0.14 0.12 0.18 0.29 0.49 0.63 0.62 0.77 1.16 1.38 1.34 1.33 1.59 2.06 2.42 2.64 2.79 3.07 3.20 3.32 3.24 3.32 3.67 3.95 3.77 3.40 3.17 2.85 2.60 2.38 2.19 2.08 2.08 2.09 2.26 2.52 2.34 2.48 2.40 2.26 2.23 2.35 2.59 2.59 2.32 2.55
0.02 0.06 0.13 0.15 0.13 0.21 0.36 0.58 0.74 0.82 1.07 1.23 1.15 1.15 1.32 1.61 2.06 2.41 2.63 2.75 2.97 3.22 3.63 3.67 3.72 4.01 4.17 3.94 3.69 3.46 3.24 2.87 2.73 2.57 2.39 2.11 2.00 2.11 2.19 2.39 2.23 2.21 2.21 2.20 2.34 2.50 2.32 2.03 2.48
0.04 0.06 0.12 0.12 0.19 0.31 0.39 0.78 0.94 1.06 1.20 1.18 1.14 1.29 1.36 1.44 1.81 2.03 2.07 2.26 2.43 2.53 2.78 3.01 3.36 3.74 3.81 3.83 3.70 3.57 3.45 2.98 2.79 2.62 2.41 2.17 2.01 1.97 2.06 2.17 2.17 2.09 2.07 2.07 2.25 2.29 2.22 2.09 2.24
0.06 0.05 0.05 0.08 0.16 0.41 0.49 0.99 1.20 1.39 1.45 1.26 1.21 1.20 1.21 1.42 1.73 1.72 1.59 1.75 1.93 1.87 2.12 2.46 2.81 3.07 3.21 3.32 3.32 3.32 3.18 2.94 2.86 2.68 2.31 2.05 1.89 1.87 1.92 1.95 1.94 1.94 1.89 1.88 1.83 1.92 2.22 2.27 2.09
0.04 0.04 0.06 0.09 0.16 0.37 0.44 0.77 1.23 1.56 1.65 1.29 1.18 1.12 1.18 1.37 1.41 1.41 1.45 1.55 1.65 1.74 1.99 2.26 2.46 2.68 2.81 2.87 2.88 2.88 2.76 2.63 2.55 2.39 2.11 1.91 1.76 1.68 1.58 1.62 1.78 1.82 1.74 1.67 1.69 1.81 1.96 1.98 1.96
0.04 0.07 0.12 0.17 0.34 0.68 0.58 0.68 1.17 1.47 1.29 1.12 1.07 0.92 1.00 1.21 1.30 1.37 1.44 1.48 1.57 1.82 2.11 2.34 2.49 2.63 2.66 2.46 2.32 2.32 2.32 2.28 2.18 2.02 1.83 1.64 1.52 1.44 1.35 1.42 1.56 1.60 1.59 1.58 1.55 1.60 1.70 1.77 1.82
0.08 0.16 0.54 0.89 1.21 1.10 0.70 0.79 1.36 1.22 0.87 0.78 0.86 0.84 0.85 0.93 1.09 1.20 1.36 1.52 1.63 1.70 1.72 1.98 2.28 2.45 2.39 2.19 2.02 1.95 1.98 1.97 1.90 1.76 1.65 1.56 1.39 1.29 1.26 1.28 1.30 1.33 1.37 1.42 1.45 1.48 1.54 1.67 1.74
0.13 0.24 0.68 0.92 0.96 0.94 0.74 1.13 1.51 1.12 0.77 0.62 0.69 0.70 0.62 0.59 0.56 0.65 0.78 0.85 0.93 0.94 0.93 1.04 1.21 1.37 1.42 1.36 1.37 1.39 1.43 1.46 1.47 1.54 1.45 1.41 1.34 1.21 1.16 1.10 1.08 1.13 1.16 1.19 1.33 1.42 1.52 1.63 1.69
0.24 0.28 0.28 0.48 0.65 0.95 0.93 1.12 1.10 0.84 0.67 0.61 0.67 0.65 0.53 0.48 0.43 0.47 0.53 0.52 0.60 0.61 0.65 0.77 0.88 0.97 0.99 0.96 0.94 0.95 1.01 1.11 1.16 1.18 1.16 1.17 1.16 1.10 1.08 1.07 1.09 1.06 1.07 1.13 1.23 1.32 1.36 1.50 1.58
0.20 0.28 0.42 0.65 0.86 0.92 0.96 1.25 1.36 1.15 0.94 0.75 0.72 0.67 0.51 0.41 0.36 0.37 0.44 0.45 0.55 0.66 0.77 0.89 0.91 0.88 0.82 0.80 0.77 0.71 0.79 0.85 0.90 0.89 0.87 0.86 0.86 0.89 0.89 0.90 0.92 0.94 0.94 0.97 1.07 1.17 1.24 1.35 1.41
0.22 0.30 0.45 0.61 0.67 0.81 1.06 1.14 0.84 0.78 0.83 0.90 0.92 0.78 0.53 0.40 0.34 0.35 0.41 0.44 0.50 0.60 0.70 0.78 0.82 0.85 0.79 0.73 0.74 0.73 0.70 0.68 0.70 0.74 0.72 0.74 0.74 0.74 0.74 0.76 0.79 0.82 0.87 0.93 0.96 1.01 1.09 1.14 1.19
0.21 0.31 0.47 0.69 0.74 0.76 0.84 0.89 0.49 0.47 0.56 0.65 0.66 0.55 0.38 0.31 0.29 0.29 0.31 0.32 0.39 0.48 0.56 0.59 0.63 0.74 0.73 0.67 0.68 0.71 0.67 0.61 0.61 0.60 0.58 0.61 0.63 0.64 0.65 0.67 0.70 0.73 0.79 0.87 0.97 1.02 1.08 1.10 1.11

GEFSSGP_prec_meanprecacc_168.txt.gz
Total_Precipitation_Accumulation
0.01 0.04 0.17 0.32 0.60 0.99 1.09 0.71 0.62 0.41 0.32 0.34 0.28 0.25 0.33 0.51 0.62 0.79 0.34 0.10 0.03 0.02 0.03 0.06 0.07 0.06 0.06 0.07 0.10 0.12 0.12 0.12 0.14 0.16 0.18 0.20 0.22 0.20 0.17 0.16 0.15 0.16 0.14 0.13 0.12 0.12 0.12 0.12 0.13
0.01 0.05 0.17 0.32 0.72 1.24 1.05 0.53 0.37 0.30 0.28 0.32 0.31 0.31 0.48 0.51 0.37 0.35 0.19 0.09 0.04 0.02 0.02 0.03 0.06 0.06 0.06 0.07 0.09 0.13 0.14 0.12 0.13 0.18 0.19 0.19 0.21 0.21 0.20 0.20 0.19 0.18 0.13 0.11 0.09 0.09 0.09 0.09 0.08
0.01 0.05 0.17 0.32 0.64 0.92 0.73 0.43 0.28 0.22 0.29 0.43 0.45 0.39 0.58 0.52 0.38 0.34 0.19 0.07 0.05 0.04 0.06 0.05 0.06 0.06 0.06 0.07 0.09 0.13 0.16 0.14 0.14 0.18 0.19 0.18 0.21 0.22 0.22 0.24 0.25 0.23 0.17 0.12 0.11 0.08 0.08 0.08 0.07
0.01 0.07 0.15 0.27 0.41 0.43 0.37 0.28 0.24 0.22 0.27 0.41 0.50 0.49 0.59 0.40 0.25 0.23 0.15 0.08 0.05 0.05 0.09 0.08 0.07 0.07 0.06 0.06 0.07 0.10 0.13 0.15 0.16 0.19 0.20 0.21 0.25 0.25 0.21 0.23 0.23 0.22 0.17 0.14 0.14 0.12 0.08 0.07 0.07
0.02 0.07 0.15 0.26 0.33 0.34 0.30 0.25 0.24 0.32 0.37 0.44 0.50 0.68 0.68 0.44 0.30 0.21 0.16 0.10 0.04 0.05 0.06 0.07 0.08 0.08 0.08 0.08 0.07 0.09 0.12 0.14 0.15 0.18 0.23 0.24 0.25 0.27 0.27 0.24 0.21 0.18 0.14 0.13 0.18 0.20 0.16 0.12 0.12
0.03 0.05 0.10 0.19 0.24 0.28 0.26 0.22 0.19 0.27 0.40 0.50 0.55 0.68 0.74 0.55 0.40 0.29 0.19 0.14 0.08 0.06 0.08 0.11 0.12 0.11 0.10 0.10 0.10 0.11 0.14 0.15 0.15 0.16 0.18 0.19 0.19 0.22 0.25 0.23 0.22 0.19 0.18 0.19 0.19 0.19 0.20 0.22 0.21
0.02 0.03 0.04 0.08 0.12 0.16 0.19 0.22 0.19 0.23 0.37 0.47 0.51 0.77 0.89 0.72 0.51 0.39 0.31 0.31 0.30 0.17 0.14 0.16 0.19 0.20 0.18 0.18 0.19 0.18 0.18 0.18 0.18 0.18 0.20 0.20 0.21 0.24 0.25 0.24 0.23 0.22 0.23 0.22 0.20 0.18 0.18 0.22 0.23
0.01 0.02 0.03 0.04 0.07 0.15 0.15 0.17 0.18 0.24 0.27 0.37 0.44 0.67 0.94 0.75 0.53 0.55 0.66 0.62 0.65 0.44 0.29 0.28 0.33 0.40 0.34 0.27 0.26 0.25 0.24 0.24 0.24 0.25 0.27 0.28 0.30 0.32 0.35 0.33 0.33 0.32 0.32 0.30 0.27 0.24 0.23 0.27 0.26
0.01 0.01 0.01 0.02 0.05 0.10 0.09 0.12 0.15 0.14 0.19 0.28 0.38 0.50 0.67 0.56 0.56 0.79 1.07 0.92 0.86 0.69 0.47 0.37 0.36 0.45 0.49 0.42 0.35 0.36 0.36 0.36 0.38 0.46 0.46 0.49 0.58 0.62 0.64 0.55 0.60 0.61 0.63 0.60 0.57 0.50 0.46 0.41 0.35
0.00 0.00 0.01 0.01 0.02 0.03 0.05 0.08 0.13 0.16 0.31 0.55 0.65 0.67 0.59 0.69 0.83 1.10 1.24 1.12 1.01 0.92 0.69 0.54 0.48 0.45 0.49 0.50 0.61 0.67 0.67 0.68 0.68 0.81 0.84 0.93 1.02 0.97 0.75 0.80 1.02 1.20 1.26 1.19 1.18 1.13 0.93 0.78 0.75
0.00 0.00 0.01 0.01 0.01 0.01 0.02 0.06 0.12 0.21 0.47 0.84 1.00 1.00 0.86 1.03 1.29 1.52 1.61 1.56 1.38 1.26 0.93 0.71 0.65 0.65 0.64 0.73 0.73 0.83 0.98 1.11 1.06 1.04 1.17 1.33 1.26 1.04 0.91 1.01 1.20 1.38 1.49 1.61 1.91 1.91 1.52 1.53 1.58
0.00 0.00 0.00 0.00 0.00 0.01 0.02 0.05 0.15 0.34 0.68 0.83 1.02 1.15 1.03 1.22 1.45 1.62 2.06 2.12 1.69 1.39 1.24 1.11 0.98 0.94 0.98 0.92 0.99 1.01 1.03 1.10 1.12 1.25 1.35 1.47 1.51 1.41 1.33 1.43 1.49 1.67 1.77 2.11 2.16 2.25 2.10 1.93 1.72
0.00 0.00 0.00 0.00 0.01 0.01 0.03 0.07 0.16 0.34 0.52 0.60 0.82 0.94 0.91 1.26 1.56 1.91 2.46 2.40 2.07 1.82 1.61 1.42 1.42 1.44 1.36 1.30 1.32 1.21 1.21 1.21 1.28 1.42 1.56 1.65 1.70 1.64 1.65 1.72 1.78 1.62 1.76 2.05 2.27 2.20 2.37 2.38 2.16
0.00 0.00 0.00 0.01 0.01 0.02 0.03 0.10 0.20 0.40 0.53 0.70 0.74 0.91 1.12 1.46 1.71 2.14 2.46 2.70 2.49 2.15 1.89 1.74 1.66 1.71 1.73 1.65 1.69 1.65 1.43 1.45 1.45 1.63 1.69 1.78 1.84 1.88 1.96 1.97 1.93 1.73 1.73 1.99 2.24 2.18 2.46 2.37 2.32
0.01 0.01 0.04 0.03 0.03 0.04 0.06 0.21 0.40 0.53 0.67 0.81 0.93 1.04 1.25 1.57 2.03 2.28 2.48 2.81 2.79 2.61 2.40 2.15 2.00 2.14 2.31 2.31 2.22 2.07 1.85 1.67 1.68 1.77 1.81 1.88 1.89 2.03 2.01 1.94 1.91 1.88 1.85 2.05 2.15 2.22 2.39 2.21 2.08
0.01 0.03 0.09 0.10 0.07 0.07 0.13 0.48 0.57 0.49 0.74 0.92 0.99 1.15 1.52 1.89 2.29 2.73 2.82 2.72 2.73 2.79 2.74 2.37 2.19 2.57 2.89 2.85 2.71 2.52 2.23 1.98 1.84 1.88 1.84 1.90 1.94 2.04 2.16 1.95 1.86 2.10 2.10 2.22 2.43 2.42 2.54 2.57 2.42
0.01 0.05 0.10 0.14 0.09 0.10 0.22 0.65 0.57 0.43 0.60 0.79 1.03 1.21 1.68 2.18 2.49 2.62 2.67 2.81 2.93 2.98 2.91 2.74 2.75 2.84 2.99 3.05 3.08 2.83 2.54 2.26 2.02 1.90 1.80 1.82 1.93 2.15 2.45 2.24 2.22 2.29 2.30 2.32 2.07 2.53 2.79 2.74 2.58
0.01 0.04 0.09 0.14 0.12 0.15 0.26 0.49 0.53 0.48 0.63 0.84 1.16 1.34 1.51 1.90 2.33 2.40 2.49 2.91 3.00 3.13 3.19 3.03 3.03 3.15 3.41 3.59 3.63 3.23 2.82 2.47 2.22 2.05 1.99 2.03 2.22 2.39 2.62 2.38 2.31 2.35 2.41 2.34 2.41 2.73 2.71 2.48 2.48
0.01 0.04 0.11 0.14 0.13 0.19 0.29 0.49 0.64 0.62 0.79 1.18 1.40 1.38 1.37 1.66 2.14 2.48 2.72 2.89 3.20 3.35 3.46 3.39 3.50 3.81 4.08 3.90 3.52 3.26 2.94 2.70 2.50 2.28 2.13 2.13 2.13 2.29 2.54 2.36 2.50 2.42 2.28 2.23 2.36 2.60 2.60 2.33 2.56
0.02 0.06 0.13 0.15 0.14 0.22 0.36 0.59 0.75 0.84 1.09 1.25 1.17 1.18 1.35 1.67 2.15 2.51 2.74 2.87 3.12 3.40 3.79 3.82 3.90 4.18 4.29 4.04 3.78 3.54 3.31 2.94 2.82 2.67 2.45 2.15 2.03 2.13 2.21 2.42 2.24 2.22 2.22 2.21 2.35 2.51 2.32 2.04 2.49
0.04 0.06 0.12 0.12 0.19 0.31 0.41 0.79 0.97 1.09 1.22 1.21 1.17 1.33 1.41 1.50 1.88 2.12 2.16 2.36 2.54 2.67 2.92 3.15 3.52 3.93 3.99 3.97 3.81 3.66 3.54 3.07 2.87 2.70 2.48 2.22 2.04 1.99 2.09 2.20 2.19 2.10 2.07 2.08 2.25 2.29 2.22 2.09 2.25
0.06 0.05 0.05 0.08 0.16 0.42 0.49 1.01 1.23 1.41 1.49 1.30 1.24 1.22 1.24 1.47 1.79 1.78 1.64 1.80 2.04 1.98 2.24 2.60 2.95 3.20 3.35 3.45 3.42 3.38 3.23 2.99 2.91 2.72 2.34 2.09 1.92 1.89 1.94 1.96 1.95 1.95 1.90 1.89 1.83 1.92 2.22 2.28 2.10
0.04 0.04 0.06 0.10 0.17 0.38 0.44 0.78 1.26 1.59 1.68 1.32 1.20 1.14 1.21 1.41 1.47 1.47 1.49 1.60 1.73 1.84 2.10 2.37 2.58 2.78 2.90 2.94 2.96 2.95 2.81 2.67 2.59 2.43 2.15 1.94 1.80 1.71 1.59 1.62 1.79 1.83 1.75 1.68 1.69 1.81 1.96 1.99 1.97
0.04 0.07 0.13 0.17 0.34 0.68 0.59 0.69 1.19 1.49 1.32 1.15 1.11 0.95 1.03 1.24 1.34 1.41 1.48 1.57 1.65 1.90 2.21 2.43 2.60 2.73 2.74 2.53 2.39 2.38 2.36 2.33 2.22 2.05 1.86 1.67 1.55 1.47 1.37 1.43 1.56 1.60 1.60 1.59 1.55 1.60 1.70 1.77 1.82
0.08 0.17 0.54 0.90 1.21 1.11 0.70 0.80 1.38 1.25 0.89 0.81 0.89 0.88 0.89 0.96 1.11 1.22 1.38 1.55 1.69 1.76 1.79 2.08 2.39 2.54 2.48 2.24 2.05 1.99 2.03 2.03 1.95 1.80 1.69 1.59 1.42 1.31 1.28 1.29 1.30 1.34 1.38 1.42 1.45 1.48 1.54 1.67 1.74
0.13 0.24 0.68 0.93 0.97 0.96 0.77 1.16 1.59 1.19 0.80 0.65 0.74 0.75 0.67 0.62 0.59 0.67 0.80 0.87 0.96 0.97 0.97 1.09 1.28 1.45 1.49 1.41 1.40 1.43 1.47 1.50 1.52 1.59 1.49 1.44 1.36 1.23 1.18 1.11 1.08 1.13 1.16 1.19 1.33 1.42 1.52 1.63 1.69
0.24 0.28 0.29 0.48 0.66 0.98 1.00 1.18 1.20 0.93 0.73 0.67 0.76 0.72 0.57 0.51 0.45 0.49 0.55 0.53 0.62 0.65 0.68 0.80 0.93 1.05 1.08 1.05 1.02 1.03 1.08 1.16 1.20 1.22 1.21 1.21 1.20 1.12 1.09 1.08 1.10 1.06 1.08 1.13 1.23 1.32 1.36 1.50 1.58
0.20 0.28 0.42 0.66 0.88 0.98 1.03 1.33 1.46 1.28 1.02 0.81 0.79 0.72 0.55 0.44 0.39 0.40 0.46 0.46 0.57 0.68 0.80 0.93 0.97 0.97 0.94 0.93 0.90 0.81 0.89 0.94 0.97 0.95 0.92 0.91 0.91 0.93 0.92 0.91 0.94 0.95 0.94 0.97 1.08 1.17 1.24 1.35 1.41
0.23 0.30 0.45 0.61 0.68 0.85 1.14 1.23 0.95 0.89 0.91 0.96 0.98 0.83 0.57 0.42 0.37 0.38 0.43 0.45 0.51 0.61 0.72 0.81 0.87 0.92 0.87 0.82 0.85 0.85 0.82 0.79 0.80 0.83 0.80 0.80 0.79 0.79 0.78 0.79 0.81 0.84 0.89 0.94 0.97 1.01 1.09 1.14 1.19
0.22 0.32 0.47 0.69 0.75 0.78 0.89 0.94 0.55 0.53 0.63 0.74 0.75 0.60 0.42 0.35 0.33 0.33 0.34 0.35 0.42 0.51 0.59 0.63 0.67 0.78 0.78 0.74 0.78 0.83 0.80 0.74 0.72 0.70 0.68 0.69 0.71 0.72 0.70 0.72 0.74 0.77 0.82 0.89 0.98 1.03 1.08 1.10 1.11

GEFSSGP_prec_meanprecacc_174.txt.gz
Total_Precipitation_Accumulation
0.01 0.04 0.17 0.32 0.61 1.01 1.10 0.72 0.64 0.42 0.34 0.36 0.29 0.27 0.34 0.51 0.63 0.80 0.34 0.10 0.03 0.02 0.04 0.07 0.09 0.08 0.07 0.08 0.10 0.13 0.13 0.13 0.14 0.16 0.18 0.20 0.23 0.21 0.18 0.17 0.16 0.17 0.15 0.14 0.14 0.14 0.14 0.15 0.15
0.01 0.05 0.17 0.32 0.72 1.25 1.06 0.54 0.39 0.32 0.31 0.34 0.33 0.32 0.48 0.51 0.37 0.35 0.19 0.09 0.04 0.02 0.02 0.04 0.07 0.07 0.06 0.07 0.10 0.13 0.14 0.13 0.13 0.18 0.20 0.19 0.22 0.21 0.21 0.21 0.21 0.19 0.14 0.12 0.10 0.10 0.10 0.11 0.10
0.01 0.05 0.17 0.33 0.64 0.93 0.74 0.43 0.29 0.25 0.32 0.47 0.48 0.39 0.58 0.52 0.38 0.34 0.19 0.07 0.05 0.04 0.06 0.06 0.07 0.07 0.06 0.07 0.10 0.13 0.16 0.14 0.15 0.19 0.19 0.19 0.21 0.23 0.23 0.26 0.27 0.24 0.17 0.13 0.11 0.10 0.09 0.09 0.08
0.01 0.07 0.15 0.27 0.41 0.44 0.37 0.28 0.25 0.25 0.31 0.44 0.52 0.50 0.59 0.40 0.25 0.23 0.15 0.08 0.05 0.05 0.09 0.09 0.07 0.07 0.06 0.06 0.08 0.10 0.14 0.16 0.17 0.19 0.20 0.22 0.26 0.26 0.22 0.25 0.24 0.23 0.18 0.14 0.15 0.13 0.09 0.09 0.09
0.02 0.07 0.15 0.26 0.33 0.34 0.31 0.26 0.26 0.34 0.39 0.47 0.51 0.69 0.69 0.45 0.30 0.21 0.16 0.11 0.04 0.05 0.06 0.08 0.09 0.08 0.08 0.08 0.08 0.09 0.13 0.15 0.16 0.19 0.23 0.24 0.26 0.28 0.28 0.24 0.22 0.19 0.15 0.14 0.19 0.21 0.17 0.13 0.14
0.03 0.05 0.10 0.19 0.25 0.28 0.27 0.23 0.20 0.29 0.43 0.53 0.57 0.69 0.76 0.56 0.41 0.30 0.20 0.15 0.09 0.07 0.09 0.12 0.13 0.12 0.11 0.10 0.10 0.12 0.14 0.16 0.15 0.16 0.19 0.20 0.20 0.23 0.25 0.24 0.23 0.19 0.18 0.19 0.19 0.20 0.21 0.24 0.23
0.02 0.03 0.04 0.09 0.12 0.16 0.20 0.23 0.20 0.25 0.40 0.51 0.53 0.78 0.90 0.74 0.53 0.39 0.31 0.31 0.31 0.18 0.14 0.17 0.20 0.21 0.18 0.18 0.19 0.19 0.19 0.19 0.18 0.19 0.20 0.21 0.22 0.25 0.25 0.24 0.23 0.22 0.24 0.23 0.21 0.19 0.19 0.24 0.26
0.01 0.02 0.03 0.04 0.08 0.15 0.16 0.18 0.19 0.25 0.29 0.40 0.46 0.67 0.94 0.76 0.54 0.56 0.68 0.65 0.66 0.46 0.31 0.29 0.34 0.41 0.34 0.28 0.27 0.26 0.25 0.24 0.25 0.26 0.28 0.29 0.31 0.33 0.36 0.34 0.34 0.32 0.32 0.31 0.29 0.25 0.25 0.28 0.29
0.01 0.01 0.01 0.03 0.05 0.10 0.09 0.13 0.16 0.16 0.21 0.30 0.39 0.50 0.68 0.56 0.57 0.81 1.10 0.95 0.88 0.71 0.49 0.39 0.36 0.45 0.49 0.43 0.36 0.37 0.38 0.37 0.39 0.47 0.48 0.50 0.58 0.62 0.65 0.56 0.61 0.62 0.64 0.61 0.58 0.52 0.48 0.42 0.38
0.00 0.00 0.01 0.01 0.02 0.03 0.05 0.09 0.14 0.18 0.33 0.57 0.67 0.68 0.60 0.70 0.84 1.11 1.24 1.12 1.03 0.94 0.70 0.57 0.50 0.45 0.49 0.50 0.62 0.68 0.67 0.69 0.68 0.82 0.85 0.94 1.02 0.97 0.75 0.81 1.04 1.22 1.27 1.20 1.19 1.15 0.94 0.79 0.76
0.00 0.00 0.01 0.01 0.01 0.01 0.03 0.07 0.13 0.21 0.48 0.85 1.00 1.00 0.86 1.04 1.30 1.54 1.61 1.56 1.39 1.26 0.93 0.73 0.67 0.67 0.64 0.74 0.73 0.83 0.98 1.12 1.06 1.04 1.17 1.33 1.26 1.04 0.92 1.02 1.22 1.40 1.50 1.62 1.91 1.92 1.53 1.54 1.59
0.00 0.00 0.00 0.00 0.00 0.01 0.02 0.05 0.15 0.34 0.68 0.83 1.03 1.15 1.04 1.22 1.46 1.63 2.07 2.14 1.71 1.40 1.27 1.12 1.00 0.96 1.00 0.92 0.99 1.01 1.03 1.10 1.12 1.25 1.35 1.47 1.51 1.41 1.33 1.43 1.49 1.67 1.77 2.11 2.17 2.26 2.11 1.94 1.73
0.00 0.00 0.00 0.00 0.01 0.01 0.03 0.07 0.16 0.34 0.52 0.60 0.82 0.94 0.92 1.27 1.57 1.94 2.50 2.44 2.11 1.85 1.64 1.45 1.44 1.46 1.38 1.32 1.33 1.22 1.21 1.21 1.28 1.42 1.57 1.65 1.71 1.65 1.66 1.72 1.78 1.63 1.77 2.06 2.28 2.22 2.39 2.40 2.18
0.00 0.00 0.01 0.01 0.01 0.02 0.03 0.10 0.20 0.40 0.53 0.71 0.74 0.91 1.12 1.48 1.74 2.18 2.52 2.74 2.55 2.21 1.92 1.76 1.70 1.75 1.78 1.70 1.72 1.66 1.43 1.45 1.45 1.63 1.69 1.79 1.84 1.89 1.96 1.97 1.93 1.74 1.74 2.00 2.25 2.19 2.48 2.39 2.34
0.01 0.01 0.04 0.03 0.03 0.04 0.06 0.21 0.40 0.53 0.67 0.82 0.94 1.05 1.26 1.60 2.07 2.32 2.56 2.86 2.83 2.66 2.45 2.20 2.07 2.20 2.36 2.36 2.27 2.10 1.87 1.68 1.68 1.77 1.81 1.89 1.89 2.03 2.02 1.95 1.92 1.89 1.86 2.06 2.17 2.24 2.41 2.22 2.10
0.01 0.03 0.09 0.10 0.07 0.07 0.13 0.48 0.57 0.49 0.75 0.93 1.00 1.17 1.54 1.92 2.33 2.77 2.89 2.78 2.79 2.88 2.80 2.44 2.25 2.64 2.95 2.90 2.77 2.57 2.26 1.99 1.85 1.89 1.85 1.92 1.95 2.05 2.17 1.96 1.87 2.11 2.11 2.23 2.44 2.43 2.56 2.59 2.44
0.01 0.05 0.10 0.14 0.09 0.10 0.22 0.66 0.57 0.43 0.60 0.80 1.03 1.22 1.68 2.20 2.54 2.69 2.74 2.88 3.00 3.08 2.99 2.82 2.83 2.94 3.08 3.15 3.18 2.90 2.61 2.31 2.05 1.92 1.82 1.84 1.96 2.16 2.46 2.25 2.23 2.31 2.31 2.33 2.08 2.53 2.80 2.76 2.60
0.01 0.04 0.09 0.14 0.12 0.15 0.26 0.49 0.53 0.48 0.63 0.85 1.17 1.35 1.52 1.92 2.36 2.46 2.57 3.00 3.06 3.22 3.28 3.09 3.11 3.24 3.51 3.72 3.78 3.35 2.93 2.57 2.29 2.10 2.04 2.08 2.26 2.42 2.64 2.39 2.33 2.36 2.42 2.36 2.42 2.74 2.72 2.50 2.50
0.01 0.04 0.11 0.14 0.13 0.19 0.29 0.49 0.64 0.63 0.80 1.19 1.41 1.39 1.38 1.69 2.19 2.55 2.79 2.96 3.27 3.43 3.55 3.45 3.57 3.90 4.17 4.01 3.66 3.40 3.05 2.79 2.59 2.38 2.22 2.20 2.19 2.32 2.56 2.38 2.52 2.43 2.29 2.26 2.39 2.63 2.62 2.35 2.57
0.02 0.06 0.13 0.15 0.14 0.22 0.37 0.59 0.75 0.85 1.10 1.26 1.18 1.19 1.37 1.68 2.19 2.57 2.82 2.94 3.18 3.48 3.89 3.92 4.00 4.30 4.39 4.15 3.93 3.72 3.49 3.09 2.95 2.80 2.55 2.22 2.08 2.16 2.24 2.44 2.26 2.24 2.24 2.23 2.37 2.53 2.34 2.05 2.50
0.04 0.06 0.12 0.12 0.19 0.32 0.41 0.80 0.97 1.09 1.23 1.22 1.18 1.35 1.42 1.52 1.90 2.18 2.26 2.44 2.62 2.79 3.03 3.26 3.65 4.08 4.14 4.13 4.01 3.91 3.80 3.27 3.04 2.83 2.58 2.29 2.09 2.03 2.12 2.22 2.21 2.13 2.09 2.09 2.26 2.31 2.23 2.10 2.25
0.06 0.05 0.05 0.08 0.17 0.43 0.50 1.02 1.23 1.42 1.49 1.31 1.26 1.24 1.26 1.49 1.81 1.83 1.71 1.86 2.11 2.10 2.37 2.72 3.09 3.37 3.54 3.63 3.58 3.54 3.38 3.10 3.00 2.82 2.44 2.17 1.97 1.93 1.98 1.99 1.97 1.98 1.93 1.91 1.85 1.93 2.23 2.28 2.10
0.05 0.04 0.06 0.10 0.18 0.38 0.44 0.78 1.27 1.59 1.69 1.33 1.22 1.15 1.24 1.45 1.51 1.52 1.55 1.65 1.79 1.94 2.23 2.48 2.72 2.95 3.10 3.13 3.11 3.07 2.92 2.75 2.67 2.53 2.25 2.01 1.85 1.76 1.63 1.65 1.81 1.85 1.78 1.71 1.71 1.82 1.96 1.99 1.97
0.04 0.07 0.13 0.19 0.35 0.68 0.59 0.69 1.19 1.49 1.32 1.15 1.12 0.96 1.05 1.27 1.37 1.44 1.51 1.62 1.72 2.00 2.31 2.54 2.73 2.89 2.94 2.70 2.54 2.48 2.44 2.39 2.27 2.10 1.93 1.73 1.61 1.53 1.41 1.45 1.58 1.62 1.62 1.61 1.56 1.61 1.71 1.78 1.82
0.08 0.17 0.55 0.90 1.22 1.12 0.70 0.80 1.38 1.25 0.89 0.81 0.90 0.89 0.90 0.98 1.13 1.24 1.40 1.60 1.76 1.84 1.87 2.16 2.48 2.65 2.62 2.39 2.19 2.07 2.10 2.07 1.99 1.84 1.73 1.63 1.46 1.35 1.31 1.31 1.32 1.35 1.40 1.44 1.47 1.48 1.54 1.68 1.74
0.13 0.24 0.69 0.93 0.97 0.96 0.77 1.16 1.59 1.19 0.80 0.66 0.75 0.76 0.68 0.64 0.61 0.69 0.85 0.93 1.02 1.03 1.04 1.16 1.35 1.52 1.59 1.52 1.51 1.51 1.54 1.55 1.56 1.62 1.52 1.47 1.38 1.25 1.20 1.13 1.10 1.14 1.17 1.20 1.34 1.42 1.52 1.63 1.69
0.24 0.28 0.29 0.49 0.66 0.98 1.00 1.18 1.20 0.93 0.73 0.68 0.77 0.73 0.59 0.53 0.47 0.52 0.60 0.59 0.67 0.69 0.73 0.84 0.99 1.11 1.15 1.15 1.13 1.13 1.15 1.21 1.24 1.26 1.24 1.23 1.22 1.15 1.12 1.11 1.11 1.08 1.08 1.14 1.23 1.32 1.36 1.50 1.58
0.20 0.28 0.42 0.66 0.88 0.98 1.03 1.33 1.46 1.28 1.03 0.82 0.79 0.73 0.56 0.46 0.41 0.43 0.50 0.49 0.59 0.71 0.84 0.96 1.02 1.03 1.00 1.00 0.99 0.90 0.97 1.00 1.03 1.00 0.96 0.94 0.93 0.95 0.95 0.94 0.96 0.97 0.96 0.98 1.08 1.17 1.26 1.36 1.41
0.23 0.30 0.45 0.61 0.68 0.85 1.14 1.23 0.95 0.89 0.91 0.96 0.99 0.84 0.58 0.44 0.39 0.40 0.45 0.47 0.53 0.64 0.74 0.84 0.92 0.99 0.94 0.88 0.91 0.91 0.89 0.87 0.88 0.89 0.84 0.84 0.83 0.82 0.81 0.82 0.85 0.87 0.91 0.95 0.99 1.03 1.11 1.15 1.19
0.22 0.32 0.47 0.70 0.75 0.78 0.89 0.94 0.55 0.53 0.64 0.76 0.77 0.62 0.44 0.37 0.35 0.36 0.37 0.36 0.44 0.54 0.62 0.66 0.71 0.83 0.83 0.81 0.84 0.89 0.88 0.83 0.80 0.76 0.74 0.76 0.77 0.78 0.78 0.77 0.79 0.81 0.86 0.92 1.00 1.05 1.10 1.12 1.12